Wind_Speed
53 53 53 53 54 54 53 53 53 53 52 51 50 49 48 46 45 45 45 45 45 45 46 45 44 42 42 41 41 41 43 44 45 46 47 49 50 50
50 50 51 50 51 51 50 50 50 50 51 50 49 47 46 45 45 45 44 44 44 45 45 44 43 42 42 40 40 41 42 43 44 46 47 48 49 51
47 46 46 48 49 49 49 49 48 48 49 47 48 46 44 43 44 44 44 43 43 43 43 42 40 41 41 39 39 40 42 42 44 45 45 47 49 51
44 43 43 45 47 47 47 47 46 45 45 45 45 44 43 42 43 42 42 42 41 40 40 39 39 39 39 38 38 39 41 42 44 44 45 47 49 50
42 41 41 43 44 45 45 46 45 42 41 43 43 42 41 41 41 41 41 39 39 37 36 37 36 37 37 37 38 38 40 41 42 43 45 46 47 48
40 39 39 40 41 42 43 44 43 41 39 40 40 40 39 39 39 38 39 37 36 35 35 35 35 35 35 37 37 38 40 41 42 42 44 45 45 47
37 38 37 38 39 40 40 41 41 40 39 39 38 37 37 36 36 36 35 35 35 34 34 35 35 35 34 36 37 37 38 39 40 40 41 43 45 46
34 36 36 37 37 37 38 38 38 36 35 36 36 36 35 34 34 35 33 33 33 32 34 33 33 34 34 34 34 34 36 37 38 39 41 43 44 44
33 33 34 35 34 35 36 36 35 33 33 33 33 33 33 33 33 33 32 31 31 31 32 32 32 31 31 32 33 34 35 36 37 39 41 42 43 42
31 32 33 33 34 34 34 34 33 31 31 31 31 30 30 30 31 30 29 30 30 30 30 30 30 30 30 30 31 33 34 35 37 39 40 40 40 40
29 31 32 32 31 31 32 31 30 29 29 29 28 27 27 28 29 27 27 28 28 28 28 29 29 28 29 29 30 32 33 34 36 38 38 39 39 38
27 29 30 30 30 29 29 28 27 27 27 26 26 26 27 27 27 25 26 26 26 26 26 27 26 27 27 28 30 32 33 34 35 36 37 37 36 35
26 27 28 29 29 29 28 27 26 26 25 25 25 24 25 24 24 24 24 25 25 25 25 24 25 26 27 28 30 31 32 33 34 35 35 35 34 32
23 25 27 28 27 26 26 26 26 26 25 24 23 22 23 22 21 21 22 23 24 25 23 24 25 26 27 28 29 30 31 32 32 33 33 32 31 30
22 23 24 25 25 25 25 25 25 25 24 23 22 21 21 21 20 20 20 21 23 22 22 23 25 26 27 27 29 30 30 31 31 32 31 29 28 29
22 22 22 22 23 24 24 24 23 22 22 21 20 20 20 20 20 20 19 19 20 20 21 22 24 25 26 26 27 28 28 29 29 30 28 27 27 29
22 21 21 21 23 23 23 23 22 21 20 19 18 19 20 20 20 19 18 18 18 19 20 21 22 23 24 25 25 25 25 27 27 26 26 26 27 28
22 21 20 20 22 23 23 23 22 21 19 18 17 19 20 20 19 18 17 17 17 18 19 20 21 22 22 22 23 23 24 25 25 25 25 24 25 26
22 21 20 21 22 22 22 22 20 19 17 17 18 18 18 17 17 17 17 16 17 17 18 19 20 21 20 21 22 22 23 23 23 24 23 22 22 23
22 21 21 21 22 22 21 20 19 17 17 17 17 17 16 16 15 15 15 14 15 16 17 18 19 18 18 19 20 21 22 21 21 20 19 19 20 21
21 21 21 21 22 21 19 18 17 16 16 16 16 15 15 15 14 13 12 12 13 15 16 16 16 16 17 18 19 20 19 19 18 18 17 17 18 18
23 22 22 21 21 20 18 17 17 16 15 15 14 14 14 13 13 12 12 12 12 13 14 15 15 15 16 17 18 18 17 15 15 15 14 14 15 15
23 23 22 22 21 20 19 18 17 15 14 14 13 13 13 12 12 12 11 11 11 12 13 13 14 14 14 15 16 15 14 13 12 12 11 12 13 14
Wind_Direction
257 256 254 250 247 248 248 249 251 251 251 251 250 250 252 254 258 262 264 265 266 269 271 274 275 276 279 283 287 290 293 297 299 301 304 306 308 310
255 254 252 249 246 245 245 247 249 250 250 249 248 250 251 253 256 259 261 263 266 267 270 272 274 275 278 281 286 289 293 297 300 301 304 307 309 311
252 252 250 247 244 243 243 245 248 249 250 248 247 247 249 251 253 257 259 263 264 265 268 271 273 276 279 281 286 290 294 298 301 302 305 308 310 312
250 249 248 246 243 241 243 245 246 247 248 247 246 246 249 251 253 256 260 262 263 264 267 271 274 277 280 284 287 291 294 297 301 303 306 308 311 313
248 247 245 244 241 241 242 243 243 244 246 247 244 246 248 251 253 255 258 259 261 263 267 271 274 277 282 285 287 291 295 298 302 304 306 309 312 315
246 244 243 242 240 241 242 241 240 243 245 244 244 246 248 250 252 254 256 258 259 262 265 268 275 280 283 287 289 293 297 299 303 305 307 310 314 316
244 242 241 239 238 240 240 238 239 241 243 243 244 246 247 249 251 253 256 257 259 261 264 267 273 280 284 288 291 294 297 301 304 306 308 311 315 317
243 241 238 237 238 238 236 236 236 240 242 242 242 243 244 247 248 251 255 258 259 260 264 268 273 280 286 290 293 295 299 303 305 306 309 313 316 317
238 235 233 233 235 235 233 233 235 239 240 240 240 242 244 245 247 250 254 256 258 260 264 269 275 281 287 291 294 297 302 305 306 308 311 313 315 316
234 233 231 231 233 232 231 232 235 237 237 236 236 239 241 243 246 250 252 254 257 261 265 270 276 282 288 291 295 298 303 305 309 311 313 314 316 317
230 229 229 230 230 229 229 231 233 233 232 235 235 239 242 244 245 246 251 254 259 263 268 272 276 282 287 292 296 300 303 306 309 312 314 315 317 318
227 227 227 228 226 225 226 230 231 230 232 235 236 239 242 245 243 245 251 256 261 265 269 273 277 283 286 291 297 302 305 307 309 313 315 316 317 319
225 225 226 225 225 228 228 228 229 230 234 235 237 240 241 243 242 246 252 257 261 266 269 273 279 284 288 292 298 303 306 308 311 313 315 317 319 321
222 223 223 223 225 225 224 227 229 230 232 233 234 237 238 239 242 248 252 256 262 266 268 273 279 285 289 293 299 303 307 309 312 314 317 318 320 322
222 223 223 223 223 222 224 227 227 227 227 230 231 232 235 239 243 249 255 259 264 266 268 273 280 285 289 294 300 304 307 310 313 316 317 319 321 323
220 220 221 220 218 220 221 221 220 221 225 228 229 232 235 239 244 250 257 261 266 269 272 277 282 285 289 294 301 305 307 312 315 317 318 319 322 323
219 217 216 215 213 214 215 215 216 217 221 224 229 232 235 240 244 250 254 261 267 272 275 278 282 287 291 296 302 306 308 312 315 317 318 320 322 323
216 213 211 212 213 213 212 212 212 216 221 227 231 235 236 237 242 245 253 260 266 272 275 279 286 291 294 297 304 308 310 312 314 316 317 320 323 326
211 210 211 211 210 208 209 211 214 218 224 230 231 232 235 237 239 245 253 258 263 270 276 283 288 292 294 301 307 311 312 313 315 317 319 322 326 331
209 209 208 207 205 204 206 209 212 217 224 230 230 231 233 234 239 245 251 256 263 270 279 286 289 293 298 304 309 312 313 315 318 321 324 328 333 339
204 203 203 202 202 203 205 209 213 218 224 228 230 231 230 232 236 244 251 259 266 273 282 288 293 295 301 308 312 314 315 317 322 325 328 334 340 345
201 200 200 201 202 203 205 209 214 217 223 226 228 228 227 227 234 245 254 263 270 277 283 290 295 299 304 310 314 316 318 322 326 329 335 343 350 354
199 199 200 201 200 202 204 209 213 216 220 222 223 223 226 229 235 245 256 265 273 279 286 291 296 300 306 312 317 321 325 328 330 336 346 354 358 2
Height
5575 5579 5583 5588 5594 5599 5605 5610 5616 5621 5628 5634 5639 5643 5647 5651 5654 5657 5659 5661 5663 5664 5665 5665 5664 5664 5663 5661 5659 5656 5652 5648 5644 5639 5633 5627 5620 5613
5560 5565 5569 5574 5580 5585 5591 5597 5602 5607 5614 5622 5627 5631 5634 5639 5642 5645 5648 5650 5652 5653 5654 5654 5654 5653 5652 5651 5649 5646 5642 5639 5634 5629 5623 5616 5610 5603
5547 5551 5556 5561 5566 5573 5578 5584 5590 5595 5601 5608 5613 5618 5622 5626 5630 5633 5636 5639 5641 5642 5643 5643 5644 5643 5642 5641 5639 5636 5633 5629 5624 5619 5613 5607 5600 5593
5534 5539 5544 5549 5554 5561 5567 5573 5579 5584 5589 5596 5602 5606 5611 5615 5618 5622 5626 5629 5631 5632 5633 5634 5634 5634 5633 5631 5629 5626 5623 5619 5614 5609 5603 5598 5590 5583
5523 5527 5532 5537 5543 5549 5556 5562 5567 5573 5578 5584 5590 5595 5600 5604 5608 5613 5616 5619 5621 5623 5624 5625 5625 5625 5624 5622 5619 5617 5613 5609 5605 5599 5594 5587 5580 5573
5512 5517 5522 5527 5533 5539 5545 5551 5557 5563 5568 5574 5579 5585 5590 5594 5599 5603 5607 5609 5612 5614 5615 5616 5616 5615 5614 5613 5610 5607 5604 5600 5595 5590 5584 5578 5571 5564
5502 5507 5513 5518 5524 5530 5536 5542 5548 5554 5559 5564 5570 5575 5581 5586 5591 5595 5598 5600 5602 5604 5606 5607 5608 5607 5605 5603 5601 5598 5595 5590 5585 5580 5575 5568 5562 5555
5494 5499 5504 5510 5516 5522 5528 5534 5541 5546 5552 5556 5562 5568 5573 5578 5582 5586 5589 5591 5594 5597 5597 5598 5599 5599 5597 5595 5592 5589 5585 5581 5576 5571 5565 5559 5553 5546
5487 5492 5497 5503 5508 5514 5521 5527 5533 5538 5544 5549 5555 5560 5565 5569 5573 5577 5580 5583 5586 5588 5589 5590 5590 5590 5588 5586 5583 5580 5577 5573 5568 5562 5557 5550 5544 5537
5480 5485 5491 5496 5502 5508 5514 5520 5526 5532 5537 5542 5547 5552 5556 5560 5564 5568 5571 5575 5578 5580 5581 5582 5582 5581 5580 5577 5575 5572 5568 5564 5559 5554 5548 5542 5536 5530
5473 5478 5484 5490 5496 5502 5508 5514 5520 5525 5530 5535 5539 5543 5548 5552 5556 5560 5563 5566 5569 5571 5572 5573 5573 5573 5571 5569 5566 5564 5560 5556 5551 5546 5540 5534 5528 5522
5467 5473 5478 5484 5490 5496 5502 5508 5514 5519 5524 5528 5533 5537 5541 5545 5549 5552 5556 5559 5562 5563 5565 5565 5565 5564 5563 5562 5559 5556 5552 5547 5543 5538 5533 5527 5521 5515
5463 5468 5473 5479 5486 5492 5497 5503 5508 5513 5517 5522 5527 5531 5535 5539 5542 5546 5549 5552 5554 5556 5557 5557 5557 5556 5555 5554 5551 5548 5544 5540 5535 5531 5525 5520 5514 5509
5459 5464 5470 5475 5482 5487 5493 5498 5502 5507 5511 5516 5521 5525 5529 5533 5536 5539 5542 5544 5547 5549 5549 5549 5550 5549 5547 5545 5543 5540 5536 5532 5528 5523 5518 5513 5508 5503
5455 5461 5466 5471 5477 5482 5488 5492 5497 5502 5507 5512 5516 5520 5524 5527 5530 5533 5535 5537 5539 5541 5541 5542 5543 5541 5540 5538 5536 5533 5529 5525 5521 5517 5512 5507 5502 5498
5451 5456 5462 5467 5472 5478 5483 5488 5494 5498 5503 5507 5511 5515 5518 5521 5524 5527 5529 5531 5533 5534 5535 5535 5535 5534 5533 5531 5529 5526 5522 5519 5514 5510 5506 5502 5497 5493
5448 5453 5458 5464 5469 5474 5480 5485 5490 5494 5499 5503 5506 5510 5513 5516 5519 5521 5524 5525 5527 5528 5529 5529 5528 5527 5526 5525 5522 5519 5516 5512 5508 5504 5500 5496 5492 5487
5445 5450 5456 5461 5466 5472 5477 5482 5486 5491 5495 5499 5502 5505 5509 5511 5514 5516 5518 5520 5521 5522 5523 5523 5522 5521 5520 5518 5516 5513 5510 5506 5503 5499 5495 5492 5487 5483
5442 5448 5453 5458 5464 5469 5474 5478 5483 5487 5491 5494 5498 5501 5504 5506 5509 5511 5513 5514 5515 5516 5517 5517 5516 5515 5514 5513 5510 5507 5504 5501 5497 5494 5491 5487 5483 5478
5439 5445 5450 5456 5461 5466 5471 5475 5479 5483 5487 5490 5493 5496 5499 5502 5504 5506 5508 5509 5511 5511 5512 5512 5511 5510 5509 5507 5505 5502 5499 5496 5493 5489 5486 5482 5479 5475
5436 5442 5447 5453 5458 5463 5467 5472 5476 5480 5483 5486 5489 5492 5495 5498 5500 5502 5503 5505 5506 5507 5507 5507 5506 5505 5503 5502 5500 5497 5494 5491 5488 5486 5483 5480 5476 5473
5434 5439 5445 5450 5455 5460 5464 5469 5473 5477 5480 5483 5486 5488 5491 5494 5496 5498 5500 5501 5502 5503 5503 5502 5501 5500 5499 5497 5495 5493 5490 5487 5485 5482 5480 5478 5475 5471
5431 5436 5442 5447 5453 5457 5461 5466 5470 5473 5477 5480 5482 5485 5488 5490 5493 5494 5496 5497 5498 5498 5498 5498 5497 5496 5495 5493 5491 5489 5486 5484 5482 5480 5478 5476 5473 5471